Location: Ferintosh
(52.7647°N, 112.9692°W)
Time: 10:51:32
(UTC+00:00)

ISS - Pass Details

Date: 29 May 2023
Orbit: 414 x 422 km, 51.6° (Epoch: 24 September)

Event Time Altitude Azimuth Distance (km) Brightness Sun altitude
Rises 04:32:32 0° 277° (W) 2,426 0.9 -6.4°
Reaches altitude 10° 04:35:36 10° 248° (WSW) 1,559 -0.6 -6.7°
Maximum altitude 04:37:12 13° 221° (SW) 1,401 -1.2 -6.8°
Drops below altitude 10° 04:38:49 10° 193° (SSW) 1,560 -1.2 -7.0°
Enters shadow 04:40:21 - 175° (S) 1,937 -0.9 -7.1°
